Location: Newark
(44.2886°N, 4.8431°E)
Time: 15:28:51
(UTC+00:00)

ZACube-1 - Pass Details

Date: 03 December 2020
Orbit: 584 x 665 km, 97.6° (Epoch: 14 January)

Event Time Altitude Azimuth Distance (km) Brightness Sun altitude
Rises 17:09:15 0° 205° (SSW) 2,848 ? -11.7°
Reaches altitude 10° 17:12:03 10° 225° (SW) 1,937 ? -12.1°
Maximum altitude 17:14:53 18° 268° (W) 1,500 ? -12.6°
Drops below altitude 10° 17:17:42 10° 311° (NW) 1,926 ? -13.1°
Sets 17:20:30 0° 331° (NNW) 2,826 ? -13.6°
